When you browse on this site, cookies collect data to enhance your experience and personalize the content and advertising you see.
Visit our Privacy Policy to learn more. By continuing to use the site, you agree to this use of cookies and data.
  • In Latvia
  • List of Countries
  • For 7 days
  • Water Temperature
  • Weather Map
  • Weather Widgets
  • user-avatar
    Login

    Hourly Weather Ambor

    Today, 18 February, Tuesday

    Time Temperature Precipitation Wind Pressure Humidity
    00:00 +30°C° 0 mm 5 mps 754 mmHg 76%
    01:00 +30°C° 0 mm 5 mps 754 mmHg 77%
    02:00 +30°C° 0 mm 5 mps 753 mmHg 77%
    03:00 +29°C° 0 mm 3 mps 753 mmHg 80%
    04:00 +29°C° 0.1 mm 4 mps 753 mmHg 79%
    05:00 +29°C° 0.1 mm 4 mps 753 mmHg 79%
    06:00 +29°C° 0.1 mm 4 mps 753 mmHg 78%
    07:00 +30°C° 0.4 mm 4 mps 753 mmHg 78%
    08:00 +30°C° 0.4 mm 4 mps 754 mmHg 77%
    09:00 +30°C° 0 mm 3 mps 754 mmHg 75%
    10:00 +32°C° 0.7 mm 4 mps 754 mmHg 74%
    11:00 +32°C° 0.7 mm 5 mps 754 mmHg 72%
    12:00 +32°C° 0.7 mm 6 mps 753 mmHg 71%
    13:00 +32°C° 0.1 mm 6 mps 753 mmHg 70%
    14:00 +33°C° 0.1 mm 6 mps 752 mmHg 69%
    15:00 +33°C° 0 mm 5 mps 752 mmHg 68%
    16:00 +32°C° 0 mm 6 mps 752 mmHg 69%
    17:00 +32°C° 0 mm 6 mps 752 mmHg 70%
    18:00 +32°C° 0 mm 7 mps 752 mmHg 71%
    19:00 +32°C° 0.1 mm 7 mps 752 mmHg 72%
    20:00 +30°C° 0.1 mm 7 mps 753 mmHg 74%
    21:00 +30°C° 0.1 mm 7 mps 753 mmHg 75%
    22:00 +30°C° 0.1 mm 7 mps 753 mmHg 75%
    23:00 +30°C° 0.1 mm 7 mps 753 mmHg 75%

    Tomorrow, 19 February, Wednesday

    Time Temperature Precipitation Wind Pressure Humidity
    00:00 +31°C° 0.1 mm 8 mps 753 mmHg 75%
    01:00 +31°C° 0.2 mm 8 mps 753 mmHg 75%
    02:00 +30°C° 0.2 mm 7 mps 753 mmHg 76%
    03:00 +30°C° 0.2 mm 7 mps 752 mmHg 76%
    04:00 +30°C° 0.1 mm 7 mps 752 mmHg 76%
    05:00 +30°C° 0.1 mm 7 mps 752 mmHg 75%
    06:00 +30°C° 0.1 mm 7 mps 753 mmHg 75%
    07:00 +30°C° 0.3 mm 7 mps 753 mmHg 75%
    08:00 +30°C° 0.3 mm 7 mps 754 mmHg 74%
    09:00 +32°C° 0.3 mm 7 mps 754 mmHg 74%
    10:00 +32°C° 0.5 mm 8 mps 754 mmHg 73%
    11:00 +32°C° 0.5 mm 8 mps 754 mmHg 72%
    12:00 +32°C° 0.5 mm 8 mps 753 mmHg 72%
    13:00 +32°C° 0.2 mm 9 mps 753 mmHg 72%
    14:00 +32°C° 0.2 mm 9 mps 752 mmHg 73%
    15:00 +32°C° 0.2 mm 10 mps 752 mmHg 73%
    16:00 +31°C° 0.1 mm 10 mps 752 mmHg 74%
    17:00 +31°C° 0.1 mm 10 mps 752 mmHg 74%
    18:00 +31°C° 0.1 mm 10 mps 752 mmHg 75%
    19:00 +29°C° 0 mm 9 mps 753 mmHg 74%
    20:00 +29°C° 0 mm 8 mps 753 mmHg 74%
    21:00 +29°C° 0 mm 7 mps 754 mmHg 73%
    22:00 +29°C° 0 mm 6 mps 754 mmHg 74%
    23:00 +30°C° 0 mm 6 mps 754 mmHg 74%

    Day after tomorrow, 20 February, Thursday

    Time Temperature Precipitation Wind Pressure Humidity
    00:00 +30°C° 0 mm 5 mps 754 mmHg 75%
    01:00 +30°C° 0.1 mm 6 mps 753 mmHg 76%
    02:00 +29°C° 0.1 mm 6 mps 753 mmHg 77%
    03:00 +29°C° 0.1 mm 6 mps 752 mmHg 77%
    04:00 +29°C° 0.1 mm 6 mps 752 mmHg 78%
    05:00 +29°C° 0.1 mm 6 mps 753 mmHg 78%
    06:00 +29°C° 0.1 mm 6 mps 753 mmHg 79%
    07:00 +30°C° 0 mm 6 mps 753 mmHg 76%
    08:00 +30°C° 0 mm 6 mps 754 mmHg 74%
    09:00 +30°C° 0 mm 5 mps 754 mmHg 72%
    10:00 +32°C° 0 mm 6 mps 754 mmHg 71%
    11:00 +32°C° 0 mm 6 mps 754 mmHg 70%
    12:00 +33°C° 0 mm 6 mps 753 mmHg 69%
    13:00 +33°C° 0.1 mm 7 mps 753 mmHg 69%
    14:00 +33°C° 0.1 mm 7 mps 753 mmHg 69%
    15:00 +33°C° 0.1 mm 8 mps 752 mmHg 69%
    16:00 +32°C° 0.5 mm 7 mps 752 mmHg 71%
    17:00 +32°C° 0.5 mm 7 mps 752 mmHg 73%
    18:00 +30°C° 0.5 mm 7 mps 752 mmHg 75%
    19:00 +30°C° 0.7 mm 6 mps 753 mmHg 76%
    20:00 +30°C° 0.7 mm 5 mps 754 mmHg 76%
    21:00 +30°C° 0.7 mm 4 mps 754 mmHg 76%
    22:00 +30°C° 0.3 mm 4 mps 754 mmHg 76%
    23:00 +30°C° 0.3 mm 4 mps 754 mmHg 76%

    21 February, Friday

    Time Temperature Precipitation Wind Pressure Humidity
    00:00 +30°C° 0.3 mm 3 mps 754 mmHg 76%
    01:00 +30°C° 0.7 mm 3 mps 754 mmHg 76%
    02:00 +29°C° 0.7 mm 3 mps 754 mmHg 76%
    03:00 +29°C° 0.7 mm 3 mps 754 mmHg 76%
    04:00 +29°C° 0.4 mm 3 mps 754 mmHg 76%
    05:00 +29°C° 0.4 mm 3 mps 754 mmHg 77%
    06:00 +29°C° 0.4 mm 3 mps 754 mmHg 77%
    07:00 +29°C° 0 mm 3 mps 754 mmHg 76%
    08:00 +30°C° 0 mm 3 mps 755 mmHg 75%
    09:00 +30°C° 0 mm 3 mps 755 mmHg 74%
    10:00 +30°C° 0.2 mm 3 mps 755 mmHg 74%
    11:00 +30°C° 0.2 mm 3 mps 755 mmHg 74%
    12:00 +30°C° 0.2 mm 4 mps 755 mmHg 74%
    13:00 +30°C° 0.1 mm 4 mps 754 mmHg 73%
    14:00 +32°C° 0.1 mm 5 mps 753 mmHg 72%
    15:00 +32°C° 0.1 mm 5 mps 753 mmHg 70%
    22:00 +30°C° 0.2 mm 5 mps 755 mmHg 78%
    23:00 +30°C° 0.2 mm 5 mps 755 mmHg 78%

    22 February, Saturday

    Time Temperature Precipitation Wind Pressure Humidity
    00:00 +29°C° 0.2 mm 4 mps 755 mmHg 78%
    01:00 +29°C° 0.4 mm 4 mps 754 mmHg 77%
    02:00 +29°C° 0.4 mm 5 mps 754 mmHg 77%
    03:00 +29°C° 0.4 mm 5 mps 753 mmHg 77%
    04:00 +29°C° 1.1 mm 5 mps 753 mmHg 77%
    05:00 +29°C° 1.1 mm 5 mps 754 mmHg 78%
    06:00 +29°C° 1.1 mm 5 mps 754 mmHg 78%
    07:00 +30°C° 0.9 mm 5 mps 754 mmHg 78%
    08:00 +30°C° 0.9 mm 5 mps 755 mmHg 77%
    09:00 +30°C° 0.9 mm 5 mps 755 mmHg 77%
    10:00 +30°C° 0.3 mm 5 mps 755 mmHg 76%
    11:00 +30°C° 0.3 mm 5 mps 755 mmHg 74%
    12:00 +32°C° 0.3 mm 5 mps 755 mmHg 73%
    13:00 +32°C° 0.2 mm 5 mps 754 mmHg 72%
    14:00 +32°C° 0.2 mm 5 mps 753 mmHg 70%
    15:00 +32°C° 0.2 mm 5 mps 753 mmHg 69%
    16:00 +32°C° 0.4 mm 5 mps 752 mmHg 70%
    17:00 +32°C° 0.4 mm 6 mps 752 mmHg 71%
    18:00 +32°C° 0.4 mm 6 mps 752 mmHg 72%
    19:00 +32°C° 0.1 mm 6 mps 753 mmHg 73%
    20:00 +30°C° 0.1 mm 6 mps 753 mmHg 73%
    21:00 +30°C° 0.1 mm 6 mps 754 mmHg 74%
    22:00 +30°C° 0 mm 6 mps 754 mmHg 74%
    23:00 +30°C° 0 mm 6 mps 754 mmHg 74%

    23 February, Sunday

    Time Temperature Precipitation Wind Pressure Humidity
    00:00 +30°C° 0 mm 6 mps 754 mmHg 74%
    01:00 +30°C° 0 mm 6 mps 753 mmHg 75%
    02:00 +30°C° 0 mm 6 mps 753 mmHg 76%
    03:00 +30°C° 0 mm 7 mps 753 mmHg 76%
    04:00 +30°C° 0 mm 7 mps 753 mmHg 76%
    05:00 +30°C° 0 mm 7 mps 753 mmHg 76%
    06:00 +30°C° 0 mm 6 mps 753 mmHg 75%
    07:00 +30°C° 0 mm 6 mps 753 mmHg 74%
    08:00 +30°C° 0 mm 6 mps 754 mmHg 73%
    09:00 +32°C° 0 mm 6 mps 754 mmHg 72%
    10:00 +32°C° 0 mm 6 mps 754 mmHg 72%
    11:00 +32°C° 0 mm 6 mps 754 mmHg 72%
    12:00 +32°C° 0 mm 6 mps 754 mmHg 72%
    13:00 +32°C° 0.1 mm 6 mps 753 mmHg 72%
    14:00 +32°C° 0.1 mm 7 mps 752 mmHg 72%
    15:00 +32°C° 0.1 mm 7 mps 752 mmHg 72%
    16:00 +32°C° 0.1 mm 7 mps 752 mmHg 72%
    17:00 +32°C° 0.1 mm 7 mps 752 mmHg 72%
    18:00 +32°C° 0.1 mm 7 mps 752 mmHg 72%
    19:00 +32°C° 0.1 mm 7 mps 752 mmHg 73%
    20:00 +32°C° 0.1 mm 6 mps 753 mmHg 74%
    21:00 +30°C° 0.1 mm 6 mps 753 mmHg 75%
    22:00 +30°C° 0 mm 6 mps 753 mmHg 75%
    23:00 +30°C° 0 mm 6 mps 753 mmHg 75%
    Show more